Zurück zum Katalog

ION SCV-023

AktivWissenschaftSSO
NORAD 69876·PAYLOAD·🇺🇸 United States

Gestartet Jul 7, 2026 von Vandenberg Space Force Base

Loading…

Nächste Überflüge (nächste 24 Stunden)

TLE

AktuellSource: Space-Track

Epoche: Sep 13, 2026, 16:28 UTC

1 69876U 26156H   26256.68664468  .00000421  00000-0  47017-4 0  9995
2 69876  97.5926 155.1579 0005522 292.1685  67.8948 14.91863043 10198

Verfolge ION SCV-023 in Echtzeit mit AllMySat

Download on the App Store